Weather Roundup
Issued by NWS Chicago, IL

Home | Current Version | Previous Version | Text Only | Print | Product List | Glossary On
Versions: 1 2 3 4 5 6 7 8 9 10 11 12 13 14 15 16 17 18 19 20 21 22 23 24 25 26 27 28 29 30 31 32 33 34 35 36 37 38 39 40 41 42 43 44 45 46 47 48 49 50
000
NZUS59 KLOT 150908
HRRLOT

CHICAGO AREA WEATHER ROUNDUP
NATIONAL WEATHER SERVICE CHICAGO/ROMEOVILLE IL
300 AM CST FRI DEC 15 2017

NOTE: "FAIR" INDICATES FEW OR NO CLOUDS BELOW 12,000 FEET WITH NO
SIGNIFICANT WEATHER AND/OR OBSTRUCTIONS TO VISIBILITY.

* THESE STATIONS ARE NOT UNDER NWS QUALITY CONTROL. THEY ALSO MAY NOT
  REPORT WEATHER SUCH AS PRECIPITATION OR FOG.

ILZ005-006-012>014-019>023-151000-
NORTHEAST ILLINOIS

CITY           SKY/WX    TMP DP  RH WIND       PRES   REMARKS
OHARE          CLOUDY    24  14  65 SW7       29.94F WCI  16
MIDWAY         CLOUDY    23  14  68 SW10      29.97F WCI  12
AURORA         CLOUDY    23  17  78 SW9       29.96F WCI  13
LANSING*       CLOUDY    21  17  83 SW6       29.98F WCI  13
JOLIET*        CLOUDY    24  16  73 SW5       29.99F WCI  18
WAUKEGAN       CLOUDY    24  17  74 SW8       29.91F WCI  15
DUPAGE AIRPORT CLOUDY    22  17  81 SW9       29.94F WCI  12
WHEELING       CLOUDY    24  15  68 SW7       29.96S WCI  16
KANKAKEE*      CLOUDY    22  13  69 SW6       30.02F WCI  14
MORRIS*        CLOUDY    23  15  74 SW6       29.98F WCI  15
LEWIS AIRPORT* CLOUDY    23  16  74 SW9       29.97F WCI  13
NORTHERLY ISL    N/A     24  13  62 W6          N/A  WCI  17
$$

WIZ051-052-058>065-066-070>072-151000-
SOUTHEAST WISCONSIN

CITY           SKY/WX    TMP DP  RH WIND       PRES   REMARKS
MILWAUKEE      FLURRIES  23  16  74 SW10      29.90F WCI  12
KENOSHA*       CLOUDY    24  16  71 SW9       29.91F WCI  14
RACINE*        CLOUDY    24  16  71 SW10      29.92F WCI  14
BURLINGTON     MOCLDY    23  19  83 SW9       29.91S WCI  13
WAUKESHA       CLOUDY    21  16  79 SW9       29.89F WCI  11
WEST BEND      FLURRIES  23  18  80 SW6       29.86F WCI  16
$$

INZ001>003-010>013-019-020-151000-
NORTHWEST INDIANA

CITY           SKY/WX    TMP DP  RH WIND       PRES   REMARKS
GARY*          CLOUDY    24  13  65 S5        29.99F WCI  18
MICHIGAN CITY* NOT AVBL
RENSSELAER*    NOT AVBL
VALPARAISO     CLOUDY    20  13  74 SW7       29.98F WCI  11
$$

LMZ740>746-151000-
SOUTHERN LAKE MICHIGAN

STATION/POSITION TIME  SKY/WX   TEMP WIND        PRES    VSBY
                                AIR  DIR/SP/G
                 (UTC)          (F)  (DEG/KT/KT) (MB)    (MI)
HARRISON CRIB    0840            26  230/ 13/ 15   N/A
BURNHAM HARBOR   0900            24  240/  7/  8   N/A
CALUMET HARBOR   0848            23  210/  7/  9 1014.2F
BURNS HARBOR     0840            21  200/ 10/ 15 1015.6F
MICHIGAN CITY    0840            21  180/ 11/ 14   N/A
$$

ABBREVIATIONS USED IN REMARKS
   TC - TEMPERATURE IN CELSIUS
  WCI - WIND CHILL INDEX
   HX - HEAT INDEX
  VSB - VISIBILITY
$$



USA.gov is the U.S. government's official web portal to all federal, state and local government web resources and services.